PEGASUS DEB, 39919

Orbit data source: Space-Track

PEGASUS DEB, 39919 is space debris in LEO originally from a launch on Thu, 19 May 1994 UTC launched from the Air Force Western Test Range (AFWTR). Debris objects in space refer to the collection of defunct objects orbiting the Earth. Examples of debris include non-operational satellites, rocket bodies, and fragments generated from explosions, collisions, or faulty payload assembly.

Loading next visibility...
Identifier
39919, 1994-029AFS
Orbit
LEO
Country
Flag of USUS
Related business
Manufacturer
Unknown
Mission
Spacecraft
Bus & Motor
Unknown
Mass
Unknown
Launch date (UTC)
1994-05-19 (32 years ago)
Launch vehicle
Unknown
Launch site
Air Force Western Test Range (AFWTR)
Object type
Payload
Rocket body
Debris
Shape & HBR
Unknown shape, 0.1 m
Radar Cross Section
Small (<0.1 m²)

Expand to show TLE details & history
Last TLE update: 1 week ago

TLE from 1 week ago
0 PEGASUS DEB
1 39919U 94029AFS 26056.10831111  .00003262  00000-0  64371-3 0  9997
2 39919  81.8484 198.4676 0256593 253.6146 103.6699 14.43399554613634
Epoch: 2026-02-25T02:35Z
TLE epoch observation values (Epoch: 2026-02-25T02:35:58.079Z)
Latitude
-0.00003°
Longitude
4.49738°
Altitude
797.859 km
Speed
7.43 km/s
True Right ascension
13h 13m 52s
True Declination
0° 00' 00"
Sunlit
Object was in full shadow at epoch
Visualization orbit readout
Latitude
Unknown
Longitude
Unknown
Altitude
Unknown
Speed
Unknown
Apparent Right ascension
Unknown
Apparent Declination
Unknown
Sunlit
N/A
Visualization observer readout
Local Sidereal Time
04:17:04
Azimuth
Unknown
Elevation
Unknown
Doppler factor
Unknown
Orbital elements
Apogee altitude
927.146 km
Perigee altitude
561.628 km
Semi-major axis
7,122.524 km
Eccentricity
0.02566
Inclination
81.8484°
RAAN
198.4676°
Arg. of periapsis
253.6146°
True anomaly
106.50429°
Mean anomaly
103.6699°
Eccentric anomaly
105.08938°
Mean motion
3.61071 °/min
Orbital period
99.7 mins
BSTAR
0.00064371
Loading maneuver chart data...
Computing Atmospheric mass density...

Documentation

Showing up to 5 results
|